Weather History for KHOU - May, 2013

Change the Weather History Date:

Monday, May 6, 2013

  Actual Average Record
Temperature  
Mean Temperature 64 °F 75 °F  
Max Temperature 79 °F 84 °F 94 °F (1906)
Min Temperature 49 °F 65 °F 49 °F (2013)
Degree Days  
Heating Degree Days 1    
Cooling Degree Days 0 10  
Month to date cooling degree days 10 54  
Year to date cooling degree days 235 335  
Growing Degree Days 14 (Base 50)    
Moisture  
Dew Point 48 °F    
Average Humidity 58    
Maximum Humidity 80    
Minimum Humidity 35    
Precipitation  
Precipitation 0.00 in 0.17 in 5.00 in (1938)
Month to date precipitation 0.00 0.96  
Year to date precipitation 8.30 14.26  
Sea Level Pressure  
Sea Level Pressure 30.07 in    
Wind  
Wind Speed 3 mph (WNW)    
Max Wind Speed 13 mph    
Max Gust Speed 18 mph    
Visibility 10 miles    
Events      
T = Trace of Precipitation, MM = Missing Value Source: NWS Daily Summary

Daily Weather History Graph

Daily Weather History Graph

Search for Another Location

Airport or City:

Trip Planner

Search our weather history database for the weather conditions in past years. The results will help you decide how hot, cold, wet, or windy it might be!

Date:

Astronomy

May. 06, 2013 Rise Set
Actual Time 6:34 AM CDT 8:01 PM CDT
Civil Twilight 6:08 AM CDT 8:26 PM CDT
Nautical Twilight 5:38 AM CDT 8:57 PM CDT
Astronomical Twilight 5:06 AM CDT 9:29 PM CDT
Moon 4:22 AM CDT (5/6) 5:14 PM CDT (5/6)
Length of Visible Light 14h 18m
Length of Day
13h 26m
Waning Crescent, 11% of the Moon is Illuminated
May 6
Waning Crescent
May 9
New
May 17
First Quarter
May 24
Full
May 31
Last Quarter

Hourly Weather History & Observations

Time (CDT) Temp. Dew Point Humidity Pressure Visibility Wind Dir Wind Speed Gust Speed Precip Events Conditions
12:53 AM 59.0 °F 44.1 °F 58% 30.10 in 10.0 mi NE 4.6 mph - N/A   Clear
1:53 AM 54.0 °F 45.0 °F 72% 30.09 in 10.0 mi Calm Calm - N/A   Clear
2:53 AM 54.0 °F 46.9 °F 77% 30.08 in 10.0 mi West 3.5 mph - N/A   Clear
3:53 AM 53.1 °F 46.0 °F 77% 30.09 in 10.0 mi Calm Calm - N/A   Clear
4:53 AM 53.1 °F 46.0 °F 77% 30.08 in 10.0 mi Calm Calm - N/A   Clear
5:53 AM 53.1 °F 46.0 °F 77% 30.08 in 10.0 mi Calm Calm - N/A   Clear
6:53 AM 53.1 °F 46.0 °F 77% 30.09 in 10.0 mi Calm Calm - N/A   Partly Cloudy
7:53 AM 59.0 °F 46.9 °F 64% 30.11 in 10.0 mi Calm Calm - N/A   Partly Cloudy
8:53 AM 62.1 °F 45.0 °F 53% 30.12 in 10.0 mi Calm Calm - N/A   Partly Cloudy
9:53 AM 66.0 °F 45.0 °F 47% 30.12 in 10.0 mi Calm Calm - N/A   Scattered Clouds
10:53 AM 69.1 °F 46.0 °F 44% 30.13 in 10.0 mi WNW 6.9 mph - N/A   Scattered Clouds
11:53 AM 72.0 °F 46.9 °F 41% 30.13 in 10.0 mi WNW 9.2 mph - N/A   Scattered Clouds
12:53 PM 73.0 °F 46.9 °F 39% 30.11 in 10.0 mi NNW 6.9 mph - N/A   Scattered Clouds
1:53 PM 75.0 °F 48.0 °F 38% 30.09 in 10.0 mi WNW 8.1 mph - N/A   Mostly Cloudy
2:53 PM 75.0 °F 48.9 °F 40% 30.06 in 10.0 mi Calm Calm - N/A   Mostly Cloudy
3:53 PM 75.9 °F 48.9 °F 38% 30.02 in 10.0 mi Calm Calm - N/A   Mostly Cloudy
4:53 PM 75.9 °F 48.9 °F 38% 30.01 in 10.0 mi Variable 4.6 mph - N/A   Mostly Cloudy
5:53 PM 75.9 °F 50.0 °F 40% 30.01 in 10.0 mi WSW 8.1 mph - N/A   Mostly Cloudy
6:53 PM 75.9 °F 50.0 °F 40% 30.00 in 10.0 mi WNW 5.8 mph - N/A   Mostly Cloudy
7:53 PM 73.9 °F 50.0 °F 43% 30.01 in 10.0 mi NW 3.5 mph - N/A   Mostly Cloudy
8:53 PM 70.0 °F 52.0 °F 53% 30.01 in 10.0 mi Calm Calm - N/A   Mostly Cloudy
9:53 PM 69.1 °F 53.1 °F 57% 30.02 in 10.0 mi WSW 3.5 mph - N/A   Mostly Cloudy
10:53 PM 66.9 °F 55.0 °F 66% 30.04 in 10.0 mi SW 3.5 mph - N/A   Scattered Clouds
11:53 PM 64.0 °F 55.0 °F 73% 30.04 in 10.0 mi South 5.8 mph - N/A   Mostly Cloudy